Home   Weather   Fushun   Past weeks
Flag for China

Past Weather in Fushun, Liaoning, China — Yesterday and Last 2 Weeks

Now
59 °F

Partly sunny.


Feels Like: 58 °F
Forecast: 74 / 53 °F
Wind: 6 mph from Northeast

Location: Shenyang / Taoxian

Current Time: Jun 16, 2019 at 5:36:46 am

Latest Report: Jun 16, 2019 at 4:30 am


Visibility: N/A

Pressure: 29.80 "Hg

Humidity: 72%

Dew Point: 50 °F

Location of FushunLocation

Past Weather in Fushun — Graph

°F

Fushun Temperature Yesterday

Maximum temperature yesterday: 72 °F (at 1:30 pm)
Minimum temperature yesterday: 61 °F (at 4:30 am)
Average temperature yesterday: 65 °F

High & Low Weather Summary for the Past Weeks

 TemperatureHumidityPressure
High84 °F (Jun 1, 3:00 pm)100% (Jun 2, 10:00 pm)29.86 "Hg (Jun 2, 10:00 pm)
Low59 °F (Jun 1, 4:30 am)19% (Jun 1, 2:30 pm)29.47 "Hg (Jun 2, 6:00 pm)
Average69 °F74%29.70 "Hg
* Reported Jun 1 4:30 am — Jun 16 4:00 am, Fushun. Weather by CustomWeather, © 2019

Note: Actual official high and low records may vary slightly from our data, if they occured in-between our weather recording intervals... More about our weather records

Advertising

Fushun Weather History for the Previous 24 Hours

Scroll right to see more
 ConditionsComfort  
Time TempWeatherWind HumidityBarometerVisibility
4:00 am
Sun, Jun 16
59 °FPassing clouds.6 mph72%29.80 "HgN/A
3:30 am61 °FOvercast.6 mph72%29.80 "HgN/A
3:00 am61 °FOvercast.6 mph72%29.80 "HgN/A
2:30 am61 °FPassing clouds.6 mph72%29.80 "HgN/A
2:00 am61 °FPassing clouds.6 mph72%29.80 "HgN/A
1:30 am61 °FPassing clouds.6 mph72%29.80 "HgN/A
1:00 am61 °FPassing clouds.8 mph72%29.80 "HgN/A
12:30 am63 °FPassing clouds.6 mph68%29.80 "HgN/A
12:00 am63 °FPassing clouds.8 mph68%29.80 "HgN/A
11:30 pm
Sat, Jun 15
63 °FPassing clouds.8 mph68%29.80 "HgN/A
11:00 pm63 °FPassing clouds.10 mph68%29.80 "HgN/A
10:30 pm63 °FPassing clouds.13 mph68%29.80 "HgN/A
10:00 pm63 °FPassing clouds.10 mph68%29.80 "HgN/A
9:30 pm63 °FPassing clouds.15 mph68%29.80 "HgN/A
9:00 pm63 °FPassing clouds.10 mph68%29.77 "HgN/A
8:30 pm64 °FPassing clouds.10 mph64%29.77 "HgN/A
8:00 pm64 °FPassing clouds.10 mph64%29.74 "HgN/A
7:30 pm64 °FPassing clouds.15 mph64%29.74 "HgN/A
7:00 pm64 °FPartly sunny.15 mph64%29.74 "HgN/A
6:30 pm66 °FPartly sunny.17 mph60%29.74 "HgN/A
6:00 pm68 °FPartly sunny.15 mph60%29.71 "HgN/A
5:30 pm68 °FPartly sunny.10 mph64%29.71 "HgN/A
5:00 pm68 °FPartly sunny.13 mph64%29.71 "HgN/A
4:30 pm68 °FPartly sunny.10 mph64%29.71 "HgN/A
4:00 pm68 °FPartly sunny.13 mph60%29.71 "HgN/A
3:30 pm68 °FPartly sunny.15 mph60%29.71 "HgN/A
3:00 pm70 °FPartly sunny.13 mph57%29.71 "HgN/A
2:30 pm70 °FPartly sunny.10 mph60%29.71 "HgN/A
2:00 pm70 °FPartly sunny.13 mph60%29.71 "HgN/A
1:30 pm72 °FPartly sunny.10 mph61%29.71 "HgN/A
1:00 pm68 °FPartly sunny.10 mph64%29.71 "HgN/A
12:30 pm68 °FPartly sunny.13 mph64%29.74 "HgN/A
12:00 pm66 °FPartly sunny.13 mph64%29.74 "HgN/A
11:30 am66 °FPartly sunny.10 mph68%29.74 "HgN/A
11:00 am66 °FPartly sunny.10 mph68%29.74 "HgN/A
10:30 am66 °FPartly sunny.13 mph64%29.74 "HgN/A
10:00 am66 °FPartly sunny.13 mph64%29.74 "HgN/A
9:30 am66 °FPartly sunny.13 mph64%29.74 "HgN/A
9:00 am66 °FPartly sunny.13 mph64%29.74 "HgN/A
8:30 am66 °FPartly sunny.13 mph64%29.74 "HgN/A
8:00 am66 °FPartly sunny.13 mph64%29.74 "HgN/A
7:30 am66 °FPassing clouds.10 mph64%29.74 "HgN/A
7:00 am64 °FSunny.13 mph73%29.74 "Hg10 mi
6:30 am64 °FSunny.13 mph68%29.74 "Hg10 mi
6:00 am64 °FPassing clouds.10 mph68%29.74 "HgN/A
5:30 am63 °FSunny.8 mph73%29.74 "Hg10 mi
5:00 am63 °FPassing clouds.6 mph73%29.74 "HgN/A
Weather by CustomWeather, © 2019

See weather overview